Regional Weather Roundup
Issued by NWS

Home | Current Version | Previous Version | Text Only | Print | Product List | Glossary Off
Versions: 1 2 3 4 5 6 7 8 9 10 11 12 13 14 15 16 17 18 19 20 21 22 23 24 25 26 27 28 29 30 31 32 33 34 35 36 37 38 39 40 41 42 43 44 45 46 47 48 49 50

000
ASUS43 KDTX 222101
RWRMI
MICHIGAN HOURLY REGIONAL WEATHER ROUNDUP
NATIONAL WEATHER SERVICE DETROIT/PONTIAC MI
500 PM EDT FRI MAY 22 2015

NOTE: "FAIR" INDICATES FEW OR NO CLOUDS BELOW 12,000 FEET WITH NO
SIGNIFICANT WEATHER AND/OR OBSTRUCTION TO VISIBILITY.

MIZ047>049-052>055-059>063-066>070-074>076-081>083-222200-
SOUTHEAST LOWER MICHIGAN

CITY           SKY/WX    TMP DP  RH WIND       PRES   REMARKS
ADRIAN         SUNNY     68  28  22 N8G18     30.22S
ALMA           SUNNY     66  27  23 NW13      30.22S
ANN ARBOR      SUNNY     66  31  27 NW7G20    30.22S
BAD AXE        SUNNY     52  29  40 NE10      30.25S
CARO           SUNNY     62  29  28 NW7G17    30.21S
DETROIT CITY   SUNNY     64  27  24 NW6       30.22R
DETROIT        MOSUNNY   67  31  26 NW15G21   30.22S
FLINT          SUNNY     67  27  22 NW10      30.21S
GROSSE ILE     SUNNY     66  19  16 NW10G21   30.21S
HILLSDALE      SUNNY     68  30  24 NW12      30.22S
HOWELL         SUNNY     65  29  25 W12       30.22S

CITY           SKY/WX    TMP DP  RH WIND       PRES   REMARKS
JACKSON        SUNNY     66  32  28 NW8G21    30.22S
LAMBERTVILLE   SUNNY     68  30  24 W7        30.22R
LANSING        SUNNY     67  31  26 W8        30.23S
LAPEER         FAIR      64  25  23 NW9       30.22S
MASON          SUNNY     64  32  31 NW7       30.22S
MONROE         SUNNY     66  30  26 N5G18     30.20S
MT. CLEMENS    MOSUNNY   63  29  28 W6        30.20S
PONTIAC        MOSUNNY   64  27  24 NW14G20   30.22S
PORT HOPE        N/A     45  30  55 NE9       30.26R
PORT HURON     SUNNY     52  32  46 NE13      30.26S
TRI CITIES     SUNNY     66  25  21 NW14G23   30.22S
MIDLAND        FAIR      65  23  20 N7G20     30.22R
TROY           SUNNY     64  26  24 NW7       30.24S
SAGINAW HB     SUNNY     66  25  20 W14G21    30.21S
$$
MIZ043>046-050>051-056>058-064>065-071>073-077>080-222200-
SOUTHWEST LOWER MICHIGAN

CITY           SKY/WX    TMP DP  RH WIND       PRES   REMARKS
BATTLE CREEK   SUNNY     68  32  26 NW14      30.23S
BENTON HARBOR  SUNNY     58  32  37 VRB3      30.28R
BIG RAPIDS     SUNNY     63  12  13 NW10G21   30.23S
COLDWATER      SUNNY     67  31  26 N5        30.22S
FREMONT        FAIR      64  20  18 NW13      30.25R
HOLLAND        SUNNY     62  30  29 W9        30.28S
GRAND RAPIDS   MOSUNNY   66  33  29 W17G23    30.24R
IONIA          FAIR      67  28  23 NW10G20   30.22S
KALAMAZOO      SUNNY     68  34  28 NW15G21   30.24R
LUDINGTON      SUNNY     61  20  20 NW8       30.29S
MARSHALL       SUNNY     68  32  26 NW7G16    30.22S
MOUNT PLEASANT SUNNY     65  25  22 NW6       30.22S
MUSKEGON       SUNNY     61  24  24 NW13      30.27F
SOUTH HAVEN    SUNNY     61  30  31 N8        30.28R
$$
MIZ016>042-222200-
NORTHERN LOWER MICHIGAN

CITY           SKY/WX    TMP DP  RH WIND       PRES   REMARKS
ALPENA         SUNNY     56  25  30 N17       30.24R
BEAVER ISLAND  SUNNY     54  22  28 SW9       30.27S
BELLAIRE       SUNNY     56  20  24 W7        30.28S
CADILLAC       SUNNY     59  25  27 N8G22     30.24R
CHARLEVOIX     SUNNY     54  26  34 W5        30.30F
FRANKFORT      SUNNY     61  11  14 NW6       30.28S
GAYLORD        SUNNY     53  17  24 NW14G22   30.25R
GRAYLING       SUNNY     57  16  19 W10       30.26R
HARBOR SPRINGS SUNNY     49  29  46 SW12      30.27R
HOUGHTON LAKE  SUNNY     58  16  19 NW13G22   30.25R
MANISTEE       SUNNY     57  21  24 NW9       30.30S
OSCODA         SUNNY     49  30  47 SE9       30.24S
PELLSTON       SUNNY     57  21  24 NW13G20   30.26S
ROGERS CITY    SUNNY     50  26  38 N10       30.26S
TRAVERSE CITY  SUNNY     56  25  30 NE7       30.28S
$$
MIZ007>008-015-222200-
EASTERN UPPER MICHIGAN

CITY           SKY/WX    TMP DP  RH WIND       PRES   REMARKS
KINROSS        SUNNY     48  16  27 NW21G29   30.24S
MACKINAC ISLAN SUNNY     53  29  40 SW7       30.25R
NEWBERRY       SUNNY     53  22  29 NW12G23   30.26S
S. S. MARIE    SUNNY     46  21  37 NW14G21   30.25R
$$
MIZ004>006-011>014-085-222200-
CENTRAL UPPER MICHIGAN

CITY           SKY/WX    TMP DP  RH WIND       PRES   REMARKS
MANISTIQUE     SUNNY     49  27  42 S10       30.26R
ESCANABA       SUNNY     52  32  46 SE10G16   30.26R
MENOMINEE      SUNNY     57  32  38 SE17      30.24S
SAWYER-GWINN   SUNNY     54  23  30 NE8       30.24S
$$
MIZ001>003-009>011-084-222200-
WESTERN UPPER MICHIGAN

CITY           SKY/WX    TMP DP  RH WIND       PRES   REMARKS
IRON MOUNTAIN  SUNNY     67  16  14 VRB6      30.18F
HOUGHTON       SUNNY     53  28  38 E9        30.23S
COPPER HARBOR    N/A     50  24  36 SW10      30.24S
IRONWOOD       SUNNY     63  28  27 W5        30.19S
$$

ABBREVIATIONS USED IN REMARKS
   TC - TEMPERATURE IN CELSIUS
  WCI - WIND CHILL INDEX
   HX - HEAT INDEX
  VSB - VISIBILITY




USA.gov is the U.S. government's official web portal to all federal, state and local government web resources and services.